| time (UTC) | temp F | wind direction | speed MPH | gust MPH | rain 1hr in | rain 24hr in | rain mn in | humidity % | barometer mb |
| 20260505034550 | 57 | 243 | 1.0 | 7.0 | 0.00 | 0.00 | 0.00 | 63 | 1010.2 |
| 20260505033050 | 57 | 329 | 1.0 | 5.0 | 0.00 | 0.00 | 0.00 | 61 | 1010.2 |
| 20260505031605 | 57 | 136 | 2.0 | 9.0 | 0.00 | 0.00 | 0.00 | 60 | 1010.2 |
| 20260505030049 | 58 | 295 | 1.0 | 7.0 | 0.00 | 0.00 | 0.00 | 59 | 1010.2 |
| 20260505024549 | 58 | 238 | 1.0 | 9.0 | 0.00 | 0.00 | 0.00 | 57 | 1010.2 |
| 20260505023054 | 58 | 217 | 3.0 | 9.0 | 0.00 | 0.00 | 0.00 | 56 | 1010.4 |
| 20260505021546 | 59 | 214 | 2.0 | 5.0 | 0.00 | 0.00 | 0.00 | 54 | 1010.4 |
| 20260505020045 | 59 | 229 | 2.0 | 7.0 | 0.00 | 0.00 | 0.00 | 53 | 1010.3 |
| 20260505014545 | 60 | 205 | 3.0 | 11.0 | 0.00 | 0.00 | 0.00 | 51 | 1010.1 |
| 20260505013052 | 60 | 233 | 2.0 | 10.0 | 0.00 | 0.00 | 0.00 | 50 | 1010.0 |
| 20260505011545 | 61 | 297 | 2.0 | 8.0 | 0.00 | 0.00 | 0.00 | 49 | 1009.8 |
| 20260505010045 | 61 | 186 | 2.0 | 12.0 | 0.00 | 0.00 | 0.00 | 48 | 1009.5 |
| 20260505004549 | 62 | 257 | 2.0 | 11.0 | 0.00 | 0.00 | 0.00 | 46 | 1009.2 |
| 20260505003043 | 63 | 191 | 4.0 | 14.0 | 0.00 | 0.00 | 0.00 | 46 | 1008.9 |
| 20260505001542 | 63 | 187 | 4.0 | 10.0 | 0.00 | 0.00 | 0.00 | 45 | 1008.3 |
| 20260505000057 | 64 | 283 | 3.0 | 8.0 | 0.00 | 0.00 | 0.00 | 45 | 1008.0 |
| 20260504234541 | 65 | 15 | 4.0 | 11.0 | 0.00 | 0.00 | 0.00 | 44 | 1007.8 |
| 20260504233040 | 65 | 214 | 4.0 | 11.0 | 0.00 | 0.00 | 0.00 | 43 | 1007.6 |
| 20260504231541 | 66 | 340 | 2.0 | 16.0 | 0.00 | 0.00 | 0.00 | 42 | 1007.3 |
| 20260504230048 | 68 | 143 | 2.0 | 11.0 | 0.00 | 0.00 | 0.00 | 39 | 1006.9 |
| 20260504224537 | 69 | 281 | 4.0 | 10.0 | 0.00 | 0.00 | 0.00 | 37 | 1006.6 |
| 20260504223036 | 69 | 208 | 4.0 | 14.0 | 0.00 | 0.00 | 0.00 | 36 | 1006.5 |
| 20260504221549 | 70 | 295 | 3.0 | 13.0 | 0.00 | 0.00 | 0.00 | 33 | 1006.4 |
| 20260504220034 | 72 | 232 | 3.0 | 10.0 | 0.00 | 0.00 | 0.00 | 30 | 1006.4 |
| 20260504214535 | 72 | 150 | 4.0 | 11.0 | 0.00 | 0.00 | 0.00 | 29 | 1006.4 |
| 20260504213041 | 72 | 156 | 5.0 | 13.0 | 0.00 | 0.00 | 0.00 | 29 | 1006.4 |
| 20260504211532 | 73 | 298 | 6.0 | 14.0 | 0.00 | 0.00 | 0.00 | 28 | 1006.2 |
| 20260504210032 | 72 | 289 | 3.0 | 15.0 | 0.00 | 0.00 | 0.00 | 28 | 1006.3 |
| 20260504204539 | 72 | 295 | 5.0 | 12.0 | 0.00 | 0.00 | 0.00 | 28 | 1006.3 |
| 20260504203031 | 73 | 290 | 4.0 | 14.0 | 0.00 | 0.00 | 0.00 | 28 | 1006.5 |
| 20260504201530 | 73 | 263 | 4.0 | 15.0 | 0.00 | 0.00 | 0.00 | 27 | 1006.4 |
| 20260504200027 | 73 | 275 | 4.0 | 11.0 | 0.00 | 0.00 | 0.00 | 26 | 1006.5 |
| 20260504194527 | 73 | 301 | 5.0 | 17.0 | 0.00 | 0.00 | 0.00 | 25 | 1006.5 |
| 20260504193025 | 72 | 264 | 5.0 | 15.0 | 0.00 | 0.00 | 0.00 | 25 | 1006.6 |
| 20260504191525 | 73 | 309 | 3.0 | 11.0 | 0.00 | 0.00 | 0.00 | 25 | 1006.6 |
| 20260504190024 | 72 | 294 | 8.0 | 16.0 | 0.00 | 0.00 | 0.00 | 25 | 1006.7 |
| 20260504184521 | 72 | 293 | 4.0 | 21.0 | 0.00 | 0.00 | 0.00 | 25 | 1006.8 |
| 20260504183020 | 72 | 211 | 4.0 | 12.0 | 0.00 | 0.00 | 0.00 | 26 | 1006.8 |
| 20260504181517 | 71 | 270 | 6.0 | 15.0 | 0.00 | 0.00 | 0.00 | 26 | 1007.0 |
| 20260504180015 | 71 | 303 | 4.0 | 15.0 | 0.00 | 0.00 | 0.00 | 27 | 1007.1 |
| 20260504174514 | 71 | 280 | 6.0 | 11.0 | 0.00 | 0.00 | 0.00 | 26 | 1007.4 |
| 20260504173011 | 70 | 215 | 5.0 | 20.0 | 0.00 | 0.00 | 0.00 | 27 | 1007.5 |
| 20260504171509 | 70 | 281 | 3.0 | 17.0 | 0.00 | 0.00 | 0.00 | 28 | 1007.3 |
| 20260504160107 | 67 | 266 | 5.0 | 17.0 | 0.00 | 0.00 | 0.00 | 30 | 1008.3 |
| 20260504081532 | 47 | 214 | 0.0 | 2.0 | 0.00 | 0.00 | 0.00 | 55 | 1010.4 |
| 20260504050012 | 42 | 259 | 0.0 | 3.0 | 0.00 | 0.00 | 0.00 | 63 | 1010.3 |
| 20260504044510 | 42 | 280 | 0.0 | 1.0 | 0.00 | 0.00 | 0.00 | 62 | 1010.3 |
| 20260504043008 | 42 | 280 | 0.0 | 1.0 | 0.00 | 0.00 | 0.00 | 62 | 1010.2 |
| 20260504041504 | 43 | 280 | 0.0 | 1.0 | 0.00 | 0.00 | 0.00 | 61 | 1010.3 |
| 20260504040003 | 42 | 280 | 0.0 | 2.0 | 0.00 | 0.00 | 0.00 | 61 | 1010.1 |